Weather History for Piney Island, NC

Change the Weather History Date:

Monday, March 10, 2014

  Actual Average (KMRH) Record (KMRH)
Temperature  
Mean Temperature 56 °F -  
Max Temperature 69 °F 63 °F 86 °F (1974)
Min Temperature 43 °F 40 °F 25 °F (1984)
Degree Days  
Heating Degree Days 10    
Growing Degree Days 6 (Base 50)    
Moisture  
Dew Point 44 °F    
Average Humidity 69    
Maximum Humidity 97    
Minimum Humidity 32    
Precipitation  
Precipitation 0.00 in - - ()
Sea Level Pressure  
Sea Level Pressure 29.92 in    
Wind  
Wind Speed 6 mph (SE)    
Max Wind Speed 9 mph    
Max Gust Speed -    
Visibility 8 miles    
Events      
Averages and records for this station are not official NWS values.
T = Trace of Precipitation, MM = Missing Value Source: NWS Daily Summary

Daily Weather History Graph

Daily Weather History Graph

Search for Another Location

Airport:

Trip Planner

Search our weather history database for the weather conditions in past years. The results will help you decide how hot, cold, wet, or windy it might be!

Date:

Astronomy

Mar. 10, 2014 Rise Set
Actual Time 7:23 AM EDT 7:09 PM EDT
Civil Twilight 6:58 AM EDT 7:34 PM EDT
Nautical Twilight 6:28 AM EDT 8:03 PM EDT
Astronomical Twilight 5:59 AM EDT 8:33 PM EDT
Moon 2:00 PM EDT (3/10) 3:24 AM EDT (3/10)
Length of Visible Light 12h 36m
Length of Day
11h 45m
Waxing Gibbous, 70% of the Moon is Illuminated
Mar 10
Waxing Gibbous
Mar 16
Full
Mar 23
Last Quarter
Mar 30
New
Apr 7
First Quarter

Hourly Weather History & Observations

Time (EDT) Temp. Windchill Dew Point Humidity Pressure Visibility Wind Dir Wind Speed Gust Speed Precip Events Conditions
12:56 AM 46.9 °F - 42.1 °F 83% 30.04 in 8.0 mi East 5.8 mph - N/A   Clear
1:56 AM 44.1 °F 41.5 °F 42.1 °F 93% 30.03 in 7.0 mi SSE 4.6 mph - N/A   Clear
2:56 AM 45.0 °F 43.5 °F 42.1 °F 90% 30.00 in 6.0 mi South 3.5 mph - N/A   Clear
3:56 AM 43.0 °F - 41.0 °F 93% 29.97 in 5.0 mi Calm Calm - N/A   Clear
4:56 AM 44.1 °F 40.8 °F 42.1 °F 93% 29.97 in 6.0 mi North 5.8 mph - N/A   Clear
5:56 AM 45.0 °F 41.8 °F 44.1 °F 97% 29.98 in 4.0 mi North 5.8 mph - N/A   Clear
6:56 AM 46.0 °F 43.1 °F 44.1 °F 93% 29.98 in 5.0 mi NNE 5.8 mph - N/A   Clear
7:56 AM 46.0 °F 44.8 °F 44.1 °F 93% 29.98 in 5.0 mi NNE 3.5 mph - N/A   Clear
8:56 AM 52.0 °F - 48.0 °F 86% 29.98 in 7.0 mi Calm Calm - N/A   Clear
9:56 AM 59.0 °F - 48.9 °F 69% 29.97 in 10.0 mi West 6.9 mph - N/A   Clear
10:56 AM 57.9 °F - 46.9 °F 67% 29.96 in 10.0 mi NW 6.9 mph - N/A   Clear
11:56 AM 64.0 °F - 46.9 °F 54% 29.95 in 10.0 mi WNW 8.1 mph - N/A   Clear
12:56 PM 66.9 °F - 41.0 °F 39% 29.94 in 10.0 mi NW 9.2 mph - N/A   Clear
1:56 PM 68.0 °F - 39.0 °F 35% 29.91 in 10.0 mi ENE 6.9 mph - N/A   Clear
2:56 PM 66.0 °F - 39.0 °F 37% 29.87 in 10.0 mi ENE 8.1 mph - N/A   Clear
3:56 PM 66.9 °F - 36.0 °F 32% 29.86 in 10.0 mi ENE 9.2 mph - N/A   Clear
4:56 PM 68.0 °F - 37.0 °F 32% 29.84 in 10.0 mi East 5.8 mph - N/A   Clear
5:56 PM 66.0 °F - 43.0 °F 43% 29.84 in 10.0 mi SSE 9.2 mph - N/A   Clear
6:56 PM 62.1 °F - 46.0 °F 56% 29.84 in 10.0 mi South 6.9 mph - N/A   Clear
7:56 PM 55.9 °F - 46.9 °F 72% 29.85 in 10.0 mi South 5.8 mph - N/A   Clear
8:56 PM 54.0 °F - 48.9 °F 83% 29.86 in 10.0 mi SSW 4.6 mph - N/A   Clear
9:56 PM 54.0 °F - 46.0 °F 75% 29.85 in 10.0 mi SSW 8.1 mph - N/A   Clear
10:56 PM 53.1 °F - 46.0 °F 77% 29.85 in 10.0 mi SW 8.1 mph - N/A   Clear
11:56 PM 53.1 °F - 45.0 °F 74% 29.84 in 10.0 mi SW 6.9 mph - N/A   Clear